Athens, OH

2:25 PM EST on November 14, 2019 (GMT -0500)
Ohio University

Weather History for KUNI - August, 2019

Change the Weather History Date:

Sunday, August 18, 2019

  Actual Average (WUND) Record (WUND)
Temperature  
Mean Temperature 78 °F -  
Max Temperature 90 °F - - (-1)
Min Temperature 66 °F - - (-1)
Cooling Degree Days 13    
Growing Degree Days 28 (Base 50)    
Moisture  
Dew Point 70 °F    
Average Humidity 80    
Maximum Humidity 100    
Minimum Humidity 47    
Precipitation  
Precipitation 0.00 in - - ()
Sea Level Pressure  
Sea Level Pressure 29.98 in    
Wind  
Wind Speed 1 mph (SSW)    
Max Wind Speed 9 mph    
Max Gust Speed -    
Visibility 9 miles    
Events      
Averages and records for this station are not official NWS values.
T = Trace of Precipitation, MM = Missing Value Source: NWS Daily Summary

Daily Weather History Graph

Daily Weather History Graph

Search for Another Location

Airport or City:

Astronomy

Aug. 18, 2019 Rise Set
Actual Time 6:44 AM EDT 8:20 PM EDT
Civil Twilight 6:16 AM EDT 8:48 PM EDT
Nautical Twilight 5:41 AM EDT 9:22 PM EDT
Astronomical Twilight 5:05 AM EDT 9:59 PM EDT
Moon 10:15 PM EDT (8/18) 9:27 AM EDT (8/18)
Length of Visible Light 14h 32m
Length of Day
13h 35m
Waning Gibbous, 91% of the Moon is Illuminated
Aug 18
Waning Gibbous
Aug 23
Last Quarter
Aug 30
New
Sep 5
First Quarter
Sep 14
Full

Hourly Weather History & Observations

Time (EDT) Temp. Heat Index Dew Point Humidity Pressure Visibility Wind Dir Wind Speed Gust Speed Precip Events Conditions
12:15 AM 70.7 °F - 70.7 °F 100% 29.99 in 10.0 mi Calm Calm - N/A   Clear
12:35 AM 70.9 °F - 70.9 °F 100% 29.99 in 10.0 mi Calm Calm - N/A   Clear
12:55 AM 70.3 °F - 70.3 °F 100% 29.99 in 5.0 mi Calm Calm - N/A   Clear
1:15 AM 70.7 °F - 70.7 °F 100% 29.99 in 10.0 mi Calm Calm - N/A   Clear
1:35 AM 70.5 °F - 70.5 °F 100% 29.98 in 5.0 mi Calm Calm - N/A   Clear
1:55 AM 69.8 °F - 69.8 °F 100% 29.98 in 10.0 mi Calm Calm - N/A   Clear
2:15 AM 69.8 °F - 69.8 °F 100% 29.98 in 7.0 mi Calm Calm - N/A   Scattered Clouds
2:35 AM 69.1 °F - 69.1 °F 100% 29.97 in 10.0 mi Calm Calm - N/A   Scattered Clouds
2:55 AM 68.9 °F - 68.9 °F 100% 29.97 in 3.0 mi Calm Calm - N/A   Clear
3:15 AM 68.2 °F - 68.2 °F 100% 29.97 in 10.0 mi Calm Calm - N/A   Clear
3:35 AM 68.0 °F - 68.0 °F 100% 29.97 in 10.0 mi Calm Calm - N/A   Clear
3:55 AM 67.8 °F - 67.8 °F 100% 29.98 in 2.5 mi Calm Calm - N/A   Clear
4:15 AM 67.6 °F - 67.6 °F 100% 29.99 in 10.0 mi Calm Calm - N/A   Scattered Clouds
4:35 AM 67.5 °F - 67.5 °F 100% 29.99 in 10.0 mi Calm Calm - N/A   Clear
4:55 AM 67.1 °F - 67.1 °F 100% 29.98 in 10.0 mi Calm Calm - N/A   Clear
5:15 AM 66.9 °F - 66.9 °F 100% 29.98 in 7.0 mi Calm Calm - N/A   Clear
5:35 AM 67.1 °F - 67.1 °F 100% 29.97 in 5.0 mi Calm Calm - N/A   Clear
5:55 AM 66.4 °F - 66.4 °F 100% 29.97 in 4.0 mi Calm Calm - N/A   Clear
6:15 AM 66.6 °F - 66.6 °F 100% 29.98 in 10.0 mi Calm Calm - N/A   Clear
6:35 AM 66.4 °F - 66.4 °F 100% 29.98 in 10.0 mi Calm Calm - N/A   Clear
6:55 AM 66.0 °F - 66.0 °F 100% 29.99 in 10.0 mi Calm Calm - N/A   Clear
7:15 AM 67.1 °F - 67.1 °F 100% 29.99 in 10.0 mi Calm Calm - N/A   Clear
7:35 AM 68.2 °F - 68.2 °F 100% 29.99 in 10.0 mi Calm Calm - N/A   Clear
7:55 AM 70.2 °F - 70.2 °F 100% 30.00 in 10.0 mi Calm Calm - N/A   Clear
8:15 AM 72.5 °F - 72.5 °F 100% 30.00 in 10.0 mi Calm Calm - N/A   Clear
8:35 AM 73.2 °F - 72.9 °F 99% 30.00 in 10.0 mi Calm Calm - N/A   Clear
8:55 AM 74.3 °F - 72.1 °F 93% 30.01 in 10.0 mi Calm Calm - N/A   Clear
9:15 AM 75.9 °F - 72.7 °F 90% 30.01 in 10.0 mi Calm Calm - N/A   Clear
9:35 AM 77.0 °F - 72.3 °F 85% 30.01 in 10.0 mi WSW 4.6 mph - N/A   Clear
9:55 AM 77.7 °F - 72.7 °F 84% 30.02 in 10.0 mi Calm Calm - N/A   Clear
10:15 AM 79.0 °F - 72.7 °F 81% 30.02 in 10.0 mi Calm Calm - N/A   Clear
10:35 AM 81.0 °F 85.1 °F 71.6 °F 73% 30.02 in 10.0 mi SSW 4.6 mph - N/A   Clear
10:55 AM 82.2 °F 87.1 °F 72.0 °F 71% 30.02 in 10.0 mi SSW 3.5 mph - N/A   Clear
11:15 AM 83.1 °F 88.1 °F 71.8 °F 68% 30.02 in 10.0 mi Calm Calm - N/A   Clear
11:35 AM 84.0 °F 89.6 °F 72.0 °F 67% 30.02 in 10.0 mi Calm Calm - N/A   Clear
11:55 AM 84.0 °F 89.6 °F 72.1 °F 67% 30.02 in 10.0 mi South 4.6 mph - N/A   Scattered Clouds
12:15 PM 85.8 °F 92.2 °F 72.3 °F 64% 30.02 in 10.0 mi SSW 4.6 mph - N/A   Clear
12:35 PM 86.9 °F 93.7 °F 72.3 °F 62% 30.02 in 10.0 mi SSW 6.9 mph - N/A   Clear
12:55 PM 87.8 °F 94.3 °F 72.0 °F 59% 30.01 in 10.0 mi South 5.8 mph - N/A   Scattered Clouds
1:15 PM 86.9 °F 91.3 °F 69.6 °F 56% 30.01 in 10.0 mi SW 3.5 mph - N/A   Mostly Cloudy
1:35 PM 88.3 °F 95.0 °F 71.8 °F 58% 30.01 in 10.0 mi SSW 4.6 mph - N/A   Overcast
1:55 PM 88.0 °F 94.2 °F 71.4 °F 58% 30.01 in 10.0 mi South 3.5 mph - N/A   Mostly Cloudy
2:15 PM 88.9 °F 94.2 °F 70.5 °F 54% 30.00 in 10.0 mi SSW 4.6 mph - N/A   Scattered Clouds
2:35 PM 89.6 °F 95.7 °F 71.1 °F 54% 30.00 in 10.0 mi South 5.8 mph - N/A   Scattered Clouds
2:55 PM 90.3 °F 96.2 °F 70.7 °F 52% 29.99 in 10.0 mi SW 8.1 mph - N/A   Scattered Clouds
3:15 PM 89.1 °F 94.1 °F 69.8 °F 53% 29.98 in 10.0 mi South 6.9 mph - N/A   Scattered Clouds
3:35 PM 90.3 °F 95.7 °F 69.8 °F 51% 29.98 in 10.0 mi South 4.6 mph - N/A   Clear
3:55 PM 90.5 °F 96.0 °F 70.2 °F 51% 29.97 in 10.0 mi SW 8.1 mph - N/A   Clear
4:15 PM 90.3 °F 94.7 °F 68.7 °F 49% 29.96 in 10.0 mi South 5.8 mph - N/A   Clear
4:35 PM 90.5 °F 94.6 °F 68.4 °F 48% 29.96 in 10.0 mi SW 5.8 mph - N/A   Scattered Clouds
4:55 PM 90.5 °F 94.6 °F 68.2 °F 48% 29.96 in 10.0 mi South 5.8 mph - N/A   Clear
5:15 PM 89.4 °F 92.7 °F 67.6 °F 48% 29.96 in 10.0 mi SSW 4.6 mph - N/A   Clear
5:35 PM 90.0 °F 93.2 °F 67.3 °F 47% 29.95 in 10.0 mi South 9.2 mph - N/A   Clear
5:55 PM 89.6 °F 93.4 °F 68.2 °F 49% 29.95 in 10.0 mi South 5.8 mph - N/A   Clear
6:15 PM 88.9 °F 93.0 °F 68.5 °F 51% 29.94 in 10.0 mi South 5.8 mph - N/A   Clear
6:35 PM 88.0 °F 92.1 °F 68.7 °F 53% 29.93 in 10.0 mi SSW 4.6 mph - N/A   Clear
6:55 PM 87.8 °F 92.2 °F 69.4 °F 54% 29.93 in 10.0 mi SSW 3.5 mph - N/A   Clear
7:15 PM 86.0 °F 90.1 °F 69.1 °F 57% 29.93 in 10.0 mi SSW 3.5 mph - N/A   Clear
7:35 PM 85.6 °F 90.1 °F 69.6 °F 59% 29.92 in 10.0 mi South 3.5 mph - N/A   Clear
7:55 PM 84.6 °F 89.1 °F 70.2 °F 62% 29.92 in 10.0 mi Calm Calm - N/A   Clear
8:15 PM 81.1 °F 86.2 °F 73.2 °F 77% 29.92 in 10.0 mi Calm Calm - N/A   Clear
8:35 PM 78.6 °F - 73.4 °F 84% 29.92 in 10.0 mi SSE 3.5 mph - N/A   Clear
8:55 PM 79.3 °F - 71.4 °F 77% 29.92 in 10.0 mi SSE 4.6 mph - N/A   Clear
9:15 PM 78.4 °F - 70.5 °F 77% 29.93 in 10.0 mi Calm Calm - N/A   Clear
9:35 PM 75.7 °F - 72.1 °F 89% 29.94 in 10.0 mi Calm Calm - N/A   Clear
9:55 PM 75.2 °F - 72.7 °F 92% 29.94 in 10.0 mi South 3.5 mph - N/A   Clear
10:15 PM 75.0 °F - 73.8 °F 96% 29.94 in 10.0 mi Calm Calm - N/A   Clear
10:35 PM 75.4 °F - 72.9 °F 92% 29.95 in 10.0 mi Calm Calm - N/A   Clear
10:55 PM 74.3 °F - 73.2 °F 96% 29.96 in 10.0 mi Calm Calm - N/A   Clear
11:15 PM 74.1 °F - 74.1 °F 100% 29.96 in 10.0 mi Calm Calm - N/A   Clear
11:35 PM 74.3 °F - 74.3 °F 100% 29.96 in 10.0 mi Calm Calm - N/A   Clear
11:55 PM 72.7 °F - 72.7 °F 100% 29.97 in 10.0 mi Calm Calm - N/A   Clear